Time,TemperatureF,DewpointF,PressureIn,WindDirection,WindDirectionDegrees,WindSpeedMPH,WindSpeedGustMPH,Humidity,HourlyPrecipIn,Conditions,Clouds,dailyrainin,SoftwareType,DateUTC
2013-03-19 00:03:00,35.0,-99.9,30.23,ESE,107,13.0,19.0,-999,-99.99,,,-99.99,,2013-03-19 04:03:00,
2013-03-19 00:13:00,35.0,-99.9,30.23,ESE,112,10.0,14.0,-999,-99.99,,,-99.99,,2013-03-19 04:13:00,
2013-03-19 00:23:00,35.0,-99.9,30.22,ESE,106,12.0,22.0,-999,-99.99,,,-99.99,,2013-03-19 04:23:00,
2013-03-19 00:34:00,35.0,-99.9,30.22,ESE,106,12.0,19.0,-999,-99.99,,,-99.99,,2013-03-19 04:34:00,
2013-03-19 00:43:00,35.0,-99.9,30.22,ESE,109,13.0,19.0,-999,-99.99,,,-99.99,,2013-03-19 04:43:00,
2013-03-19 00:53:00,35.0,-99.9,30.21,East,98,17.0,23.0,-999,-99.99,,,-99.99,,2013-03-19 04:53:00,
2013-03-19 01:02:00,35.0,-99.9,30.21,ESE,102,12.0,18.0,-999,-99.99,,,-99.99,,2013-03-19 05:02:00,
2013-03-19 01:12:00,35.0,-99.9,30.20,East,98,15.0,18.0,-999,-99.99,,,-99.99,,2013-03-19 05:12:00,
2013-03-19 01:22:00,35.0,-99.9,30.19,East,93,15.0,20.0,-999,-99.99,,,-99.99,,2013-03-19 05:22:00,
2013-03-19 01:33:00,36.0,-99.9,30.18,East,96,18.0,24.0,-999,-99.99,,,-99.99,,2013-03-19 05:33:00,
2013-03-19 01:43:00,36.0,-99.9,30.17,East,97,18.0,22.0,-999,-99.99,,,-99.99,,2013-03-19 05:43:00,
2013-03-19 01:52:00,36.0,-99.9,30.16,East,99,18.0,24.0,-999,-99.99,,,-99.99,,2013-03-19 05:52:00,
2013-03-19 02:03:00,36.0,-99.9,30.14,East,93,22.0,30.0,-999,-99.99,,,-99.99,,2013-03-19 06:03:00,
2013-03-19 02:12:00,36.0,-99.9,30.13,East,93,20.0,28.0,-999,-99.99,,,-99.99,,2013-03-19 06:12:00,
2013-03-19 02:22:00,36.0,-99.9,30.12,East,92,25.0,31.0,-999,-99.99,,,-99.99,,2013-03-19 06:22:00,
2013-03-19 02:32:00,36.0,-99.9,30.11,East,94,21.0,31.0,-999,-99.99,,,-99.99,,2013-03-19 06:32:00,
2013-03-19 02:42:00,36.0,-99.9,30.10,East,95,23.0,33.0,-999,-99.99,,,-99.99,,2013-03-19 06:42:00,
2013-03-19 02:53:00,35.0,-99.9,30.09,East,94,26.0,33.0,-999,-99.99,,,-99.99,,2013-03-19 06:53:00,
2013-03-19 03:03:00,35.0,-99.9,30.08,East,99,22.0,30.0,-999,-99.99,,,-99.99,,2013-03-19 07:03:00,
2013-03-19 03:12:00,35.0,-99.9,30.07,East,99,23.0,32.0,-999,-99.99,,,-99.99,,2013-03-19 07:12:00,
2013-03-19 03:22:00,35.0,-99.9,30.06,East,98,20.0,32.0,-999,-99.99,,,-99.99,,2013-03-19 07:22:00,
2013-03-19 03:32:00,35.0,-99.9,30.04,East,99,21.0,30.0,-999,-99.99,,,-99.99,,2013-03-19 07:32:00,
2013-03-19 03:42:00,35.0,-99.9,30.04,East,99,23.0,35.0,-999,-99.99,,,-99.99,,2013-03-19 07:42:00,
2013-03-19 03:53:00,34.0,-99.9,30.03,East,101,22.0,32.0,-999,-99.99,,,-99.99,,2013-03-19 07:53:00,
2013-03-19 04:03:00,34.0,-99.9,30.03,East,99,19.0,29.0,-999,-99.99,,,-99.99,,2013-03-19 08:03:00,
2013-03-19 04:13:00,34.0,-99.9,30.03,ESE,105,18.0,30.0,-999,-99.99,,,-99.99,,2013-03-19 08:13:00,
2013-03-19 04:22:00,34.0,-99.9,30.03,East,98,21.0,28.0,-999,-99.99,,,-99.99,,2013-03-19 08:22:00,
2013-03-19 04:33:00,35.0,-99.9,30.01,East,94,19.0,25.0,-999,-99.99,,,-99.99,,2013-03-19 08:33:00,
2013-03-19 04:43:00,35.0,-99.9,30.01,East,94,22.0,26.0,-999,-99.99,,,-99.99,,2013-03-19 08:43:00,
2013-03-19 04:53:00,35.0,-99.9,29.99,East,98,24.0,32.0,-999,-99.99,,,-99.99,,2013-03-19 08:53:00,
2013-03-19 05:03:00,35.0,-99.9,29.98,East,98,23.0,33.0,-999,-99.99,,,-99.99,,2013-03-19 09:03:00,
2013-03-19 05:12:00,35.0,-99.9,29.98,East,100,21.0,35.0,-999,-99.99,,,-99.99,,2013-03-19 09:12:00,
2013-03-19 05:23:00,35.0,-99.9,29.97,East,92,23.0,31.0,-999,-99.99,,,-99.99,,2013-03-19 09:23:00,
2013-03-19 05:33:00,36.0,-99.9,29.97,East,91,19.0,30.0,-999,-99.99,,,-99.99,,2013-03-19 09:33:00,
2013-03-19 05:43:00,35.0,-99.9,29.97,East,93,22.0,29.0,-999,-99.99,,,-99.99,,2013-03-19 09:43:00,
2013-03-19 05:53:00,36.0,-99.9,29.97,East,93,22.0,30.0,-999,-99.99,,,-99.99,,2013-03-19 09:53:00,
2013-03-19 06:04:00,36.0,-99.9,29.96,East,93,21.0,32.0,-999,-99.99,,,-99.99,,2013-03-19 10:04:00,
2013-03-19 06:13:00,36.0,-99.9,29.96,East,94,20.0,26.0,-999,-99.99,,,-99.99,,2013-03-19 10:13:00,
2013-03-19 06:23:00,36.0,-99.9,29.96,East,92,21.0,29.0,-999,-99.99,,,-99.99,,2013-03-19 10:23:00,
2013-03-19 06:33:00,36.0,-99.9,29.96,East,94,21.0,30.0,-999,-99.99,,,-99.99,,2013-03-19 10:33:00,
2013-03-19 06:42:00,36.0,-99.9,29.96,East,90,22.0,29.0,-999,-99.99,,,-99.99,,2013-03-19 10:42:00,
2013-03-19 06:53:00,37.0,-99.9,29.95,East,94,24.0,32.0,-999,-99.99,,,-99.99,,2013-03-19 10:53:00,
2013-03-19 07:03:00,37.0,-99.9,29.94,East,94,21.0,33.0,-999,-99.99,,,-99.99,,2013-03-19 11:03:00,
2013-03-19 07:12:00,37.0,-99.9,29.94,East,94,23.0,28.0,-999,-99.99,,,-99.99,,2013-03-19 11:12:00,
2013-03-19 07:22:00,37.0,-99.9,29.93,East,98,24.0,32.0,-999,-99.99,,,-99.99,,2013-03-19 11:22:00,
2013-03-19 07:33:00,38.0,-99.9,29.94,East,94,22.0,27.0,-999,-99.99,,,-99.99,,2013-03-19 11:33:00,
2013-03-19 07:43:00,38.0,-99.9,29.94,East,91,21.0,31.0,-999,-99.99,,,-99.99,,2013-03-19 11:43:00,
2013-03-19 07:53:00,38.0,-99.9,29.93,East,88,22.0,30.0,-999,-99.99,,,-99.99,,2013-03-19 11:53:00,
2013-03-19 08:02:00,38.0,-99.9,29.92,East,87,21.0,26.0,-999,-99.99,,,-99.99,,2013-03-19 12:02:00,
2013-03-19 08:12:00,38.0,-99.9,29.92,East,88,21.0,28.0,-999,-99.99,,,-99.99,,2013-03-19 12:12:00,
2013-03-19 08:23:00,38.0,-99.9,29.91,East,85,21.0,28.0,-999,-99.99,,,-99.99,,2013-03-19 12:23:00,
2013-03-19 08:33:00,39.0,-99.9,29.90,East,91,22.0,34.0,-999,-99.99,,,-99.99,,2013-03-19 12:33:00,
2013-03-19 08:43:00,39.0,-99.9,29.89,East,90,23.0,31.0,-999,-99.99,,,-99.99,,2013-03-19 12:43:00,
2013-03-19 08:52:00,39.0,-99.9,29.88,East,90,23.0,33.0,-999,-99.99,,,-99.99,,2013-03-19 12:52:00,
2013-03-19 09:02:00,39.0,-99.9,29.88,East,93,23.0,32.0,-999,-99.99,,,-99.99,,2013-03-19 13:02:00,
2013-03-19 09:12:00,39.0,-99.9,29.88,East,88,22.0,31.0,-999,-99.99,,,-99.99,,2013-03-19 13:12:00,
2013-03-19 09:23:00,39.0,-99.9,29.86,East,91,27.0,32.0,-999,-99.99,,,-99.99,,2013-03-19 13:23:00,
2013-03-19 09:33:00,40.0,-99.9,29.85,East,89,23.0,33.0,-999,-99.99,,,-99.99,,2013-03-19 13:33:00,
2013-03-19 09:42:00,40.0,-99.9,29.84,East,92,24.0,30.0,-999,-99.99,,,-99.99,,2013-03-19 13:42:00,
2013-03-19 09:53:00,40.0,-99.9,29.83,East,94,24.0,33.0,-999,-99.99,,,-99.99,,2013-03-19 13:53:00,
2013-03-19 10:02:00,40.0,-99.9,29.83,East,91,26.0,37.0,-999,-99.99,,,-99.99,,2013-03-19 14:02:00,
2013-03-19 10:12:00,40.0,-99.9,29.82,East,89,24.0,32.0,-999,-99.99,,,-99.99,,2013-03-19 14:12:00,
2013-03-19 10:23:00,40.0,-99.9,29.80,East,94,26.0,34.0,-999,-99.99,,,-99.99,,2013-03-19 14:23:00,
2013-03-19 10:33:00,40.0,-99.9,29.80,East,94,27.0,32.0,-999,-99.99,,,-99.99,,2013-03-19 14:33:00,
2013-03-19 10:42:00,40.0,-99.9,29.80,East,93,23.0,33.0,-999,-99.99,,,-99.99,,2013-03-19 14:42:00,
2013-03-19 10:53:00,41.0,-99.9,29.78,East,96,27.0,34.0,-999,-99.99,,,-99.99,,2013-03-19 14:53:00,
2013-03-19 11:03:00,41.0,-99.9,29.77,East,93,25.0,34.0,-999,-99.99,,,-99.99,,2013-03-19 15:03:00,
2013-03-19 11:12:00,41.0,-99.9,29.77,East,94,24.0,31.0,-999,-99.99,,,-99.99,,2013-03-19 15:12:00,
2013-03-19 11:23:00,42.0,-99.9,29.76,East,96,24.0,33.0,-999,-99.99,,,-99.99,,2013-03-19 15:23:00,
2013-03-19 11:34:00,42.0,-99.9,29.75,East,97,21.0,32.0,-999,-99.99,,,-99.99,,2013-03-19 15:34:00,
2013-03-19 11:44:00,42.0,-99.9,29.75,East,98,23.0,33.0,-999,-99.99,,,-99.99,,2013-03-19 15:44:00,
2013-03-19 11:54:00,42.0,-99.9,29.74,East,99,22.0,34.0,-999,-99.99,,,-99.99,,2013-03-19 15:54:00,
2013-03-19 12:04:00,42.0,-99.9,29.72,East,100,26.0,35.0,-999,-99.99,,,-99.99,,2013-03-19 16:04:00,
2013-03-19 12:13:00,42.0,-99.9,29.71,ESE,102,23.0,32.0,-999,-99.99,,,-99.99,,2013-03-19 16:13:00,
2013-03-19 12:24:00,42.0,-99.9,29.71,East,99,23.0,35.0,-999,-99.99,,,-99.99,,2013-03-19 16:24:00,
2013-03-19 12:34:00,42.0,-99.9,29.70,East,101,23.0,33.0,-999,-99.99,,,-99.99,,2013-03-19 16:34:00,
2013-03-19 12:44:00,42.0,-99.9,29.70,East,98,21.0,33.0,-999,-99.99,,,-99.99,,2013-03-19 16:44:00,
2013-03-19 12:55:00,43.0,-99.9,29.69,East,99,21.0,32.0,-999,-99.99,,,-99.99,,2013-03-19 16:55:00,
2013-03-19 13:03:00,43.0,-99.9,29.67,East,100,24.0,30.0,-999,-99.99,,,-99.99,,2013-03-19 17:03:00,
2013-03-19 13:14:00,43.0,-99.9,29.67,East,100,22.0,31.0,-999,-99.99,,,-99.99,,2013-03-19 17:14:00,
2013-03-19 13:24:00,43.0,-99.9,29.66,ESE,103,18.0,27.0,-999,-99.99,,,-99.99,,2013-03-19 17:24:00,
2013-03-19 13:35:00,43.0,-99.9,29.64,East,98,23.0,28.0,-999,-99.99,,,-99.99,,2013-03-19 17:35:00,
2013-03-19 13:44:00,43.0,-99.9,29.63,East,101,24.0,30.0,-999,-99.99,,,-99.99,,2013-03-19 17:44:00,
2013-03-19 13:53:00,43.0,-99.9,29.62,ESE,104,20.0,26.0,-999,-99.99,,,-99.99,,2013-03-19 17:53:00,
2013-03-19 14:03:00,44.0,-99.9,29.62,ESE,106,19.0,26.0,-999,-99.99,,,-99.99,,2013-03-19 18:03:00,
2013-03-19 14:14:00,44.0,-99.9,29.61,ESE,108,15.0,23.0,-999,-99.99,,,-99.99,,2013-03-19 18:14:00,
2013-03-19 14:23:00,45.0,-99.9,29.60,ESE,111,15.0,24.0,-999,-99.99,,,-99.99,,2013-03-19 18:23:00,
2013-03-19 14:34:00,45.0,-99.9,29.59,ESE,121,13.0,25.0,-999,-99.99,,,-99.99,,2013-03-19 18:34:00,
2013-03-19 14:44:00,45.0,-99.9,29.58,ESE,120,11.0,20.0,-999,-99.99,,,-99.99,,2013-03-19 18:44:00,
2013-03-19 14:54:00,45.0,-99.9,29.58,SE,127,12.0,20.0,-999,-99.99,,,-99.99,,2013-03-19 18:54:00,
2013-03-19 15:03:00,45.0,-99.9,29.57,ESE,113,13.0,19.0,-999,-99.99,,,-99.99,,2013-03-19 19:03:00,
2013-03-19 15:12:00,45.0,-99.9,29.57,ESE,123,11.0,19.0,-999,-99.99,,,-99.99,,2013-03-19 19:12:00,
2013-03-19 15:23:00,45.0,-99.9,29.56,ESE,117,11.0,17.0,-999,-99.99,,,-99.99,,2013-03-19 19:23:00,
2013-03-19 15:33:00,45.0,-99.9,29.56,SE,139,9.0,15.0,-999,-99.99,,,-99.99,,2013-03-19 19:33:00,
2013-03-19 15:43:00,46.0,-99.9,29.57,SE,144,8.0,16.0,-999,-99.99,,,-99.99,,2013-03-19 19:43:00,
2013-03-19 15:53:00,46.0,-99.9,29.57,SSE,167,6.0,13.0,-999,-99.99,,,-99.99,,2013-03-19 19:53:00,
2013-03-19 16:03:00,46.0,-99.9,29.56,South,175,4.0,10.0,-999,-99.99,,,-99.99,,2013-03-19 20:03:00,
2013-03-19 16:12:00,46.0,-99.9,29.56,South,174,7.0,10.0,-999,-99.99,,,-99.99,,2013-03-19 20:12:00,
2013-03-19 16:23:00,47.0,-99.9,29.55,SSW,204,6.0,12.0,-999,-99.99,,,-99.99,,2013-03-19 20:23:00,
2013-03-19 16:33:00,46.0,-99.9,29.54,SW,217,8.0,12.0,-999,-99.99,,,-99.99,,2013-03-19 20:33:00,
2013-03-19 16:43:00,46.0,-99.9,29.54,SW,224,7.0,12.0,-999,-99.99,,,-99.99,,2013-03-19 20:43:00,
2013-03-19 16:53:00,45.0,-99.9,29.54,SW,222,6.0,11.0,-999,-99.99,,,-99.99,,2013-03-19 20:53:00,
2013-03-19 17:02:00,45.0,-99.9,29.53,SW,224,8.0,15.0,-999,-99.99,,,-99.99,,2013-03-19 21:02:00,
2013-03-19 17:12:00,44.0,-99.9,29.53,SW,226,10.0,15.0,-999,-99.99,,,-99.99,,2013-03-19 21:12:00,
2013-03-19 17:23:00,44.0,-99.9,29.53,SW,235,9.0,11.0,-999,-99.99,,,-99.99,,2013-03-19 21:23:00,
2013-03-19 17:34:00,44.0,-99.9,29.52,SW,216,8.0,13.0,-999,-99.99,,,-99.99,,2013-03-19 21:34:00,
2013-03-19 17:43:00,44.0,-99.9,29.52,SW,225,6.0,13.0,-999,-99.99,,,-99.99,,2013-03-19 21:43:00,
2013-03-19 17:53:00,43.0,-99.9,29.51,SW,219,6.0,10.0,-999,-99.99,,,-99.99,,2013-03-19 21:53:00,
2013-03-19 18:03:00,43.0,-99.9,29.50,SSW,208,8.0,12.0,-999,-99.99,,,-99.99,,2013-03-19 22:03:00,
2013-03-19 18:13:00,43.0,-99.9,29.50,SSW,202,8.0,12.0,-999,-99.99,,,-99.99,,2013-03-19 22:13:00,
2013-03-19 18:24:00,43.0,-99.9,29.50,SW,223,7.0,12.0,-999,-99.99,,,-99.99,,2013-03-19 22:24:00,
2013-03-19 18:34:00,43.0,-99.9,29.50,SW,223,8.0,11.0,-999,-99.99,,,-99.99,,2013-03-19 22:34:00,
2013-03-19 18:44:00,43.0,-99.9,29.49,SW,217,10.0,13.0,-999,-99.99,,,-99.99,,2013-03-19 22:44:00,
2013-03-19 18:54:00,42.0,-99.9,29.51,SW,226,11.0,17.0,-999,-99.99,,,-99.99,,2013-03-19 22:54:00,
2013-03-19 19:03:00,42.0,-99.9,29.50,SSW,208,11.0,19.0,-999,-99.99,,,-99.99,,2013-03-19 23:03:00,
2013-03-19 19:13:00,42.0,-99.9,29.50,SW,218,13.0,23.0,-999,-99.99,,,-99.99,,2013-03-19 23:13:00,
2013-03-19 19:22:00,41.0,-99.9,29.51,WSW,237,11.0,15.0,-999,-99.99,,,-99.99,,2013-03-19 23:22:00,
2013-03-19 19:33:00,41.0,-99.9,29.53,WSW,257,12.0,21.0,-999,-99.99,,,-99.99,,2013-03-19 23:33:00,
2013-03-19 19:43:00,41.0,-99.9,29.53,West,268,10.0,22.0,-999,-99.99,,,-99.99,,2013-03-19 23:43:00,
2013-03-19 19:53:00,40.0,-99.9,29.53,West,270,11.0,20.0,-999,-99.99,,,-99.99,,2013-03-19 23:53:00,
2013-03-19 20:03:00,40.0,-99.9,29.54,WNW,284,11.0,20.0,-999,-99.99,,,-99.99,,2013-03-20 00:03:00,
2013-03-19 20:13:00,40.0,-99.9,29.54,West,279,11.0,15.0,-999,-99.99,,,-99.99,,2013-03-20 00:13:00,
2013-03-19 20:22:00,40.0,-99.9,29.54,West,279,10.0,17.0,-999,-99.99,,,-99.99,,2013-03-20 00:22:00,
2013-03-19 20:33:00,40.0,-99.9,29.56,West,265,9.0,17.0,-999,-99.99,,,-99.99,,2013-03-20 00:33:00,
2013-03-19 20:43:00,39.0,-99.9,29.55,West,266,8.0,20.0,-999,-99.99,,,-99.99,,2013-03-20 00:43:00,
2013-03-19 20:53:00,39.0,-99.9,29.55,West,270,11.0,23.0,-999,-99.99,,,-99.99,,2013-03-20 00:53:00,
2013-03-19 21:03:00,38.0,-99.9,29.56,West,272,11.0,20.0,-999,-99.99,,,-99.99,,2013-03-20 01:03:00,
2013-03-19 21:12:00,38.0,-99.9,29.56,West,265,11.0,19.0,-999,-99.99,,,-99.99,,2013-03-20 01:12:00,
2013-03-19 21:23:00,38.0,-99.9,29.58,West,261,13.0,22.0,-999,-99.99,,,-99.99,,2013-03-20 01:23:00,
2013-03-19 21:33:00,37.0,-99.9,29.59,West,275,16.0,26.0,-999,-99.99,,,-99.99,,2013-03-20 01:33:00,
2013-03-19 21:43:00,37.0,-99.9,29.59,West,275,13.0,24.0,-999,-99.99,,,-99.99,,2013-03-20 01:43:00,
2013-03-19 21:53:00,37.0,-99.9,29.59,West,272,11.0,20.0,-999,-99.99,,,-99.99,,2013-03-20 01:53:00,
2013-03-19 22:03:00,37.0,-99.9,29.60,West,274,17.0,28.0,-999,-99.99,,,-99.99,,2013-03-20 02:03:00,
2013-03-19 22:12:00,37.0,-99.9,29.60,West,278,12.0,25.0,-999,-99.99,,,-99.99,,2013-03-20 02:12:00,
2013-03-19 22:23:00,37.0,-99.9,29.60,West,281,15.0,26.0,-999,-99.99,,,-99.99,,2013-03-20 02:23:00,
2013-03-19 22:32:00,37.0,-99.9,29.60,West,280,12.0,25.0,-999,-99.99,,,-99.99,,2013-03-20 02:32:00,
2013-03-19 22:43:00,37.0,-99.9,29.61,WNW,288,14.0,19.0,-999,-99.99,,,-99.99,,2013-03-20 02:43:00,
2013-03-19 22:53:00,37.0,-99.9,29.60,West,278,17.0,24.0,-999,-99.99,,,-99.99,,2013-03-20 02:53:00,
2013-03-19 23:02:00,37.0,-99.9,29.61,WNW,290,12.0,25.0,-999,-99.99,,,-99.99,,2013-03-20 03:02:00,
2013-03-19 23:12:00,37.0,-99.9,29.62,WNW,289,10.0,20.0,-999,-99.99,,,-99.99,,2013-03-20 03:12:00,
2013-03-19 23:22:00,36.0,-99.9,29.61,WNW,297,15.0,27.0,-999,-99.99,,,-99.99,,2013-03-20 03:22:00,
2013-03-19 23:34:00,36.0,-99.9,29.62,WNW,289,13.0,25.0,-999,-99.99,,,-99.99,,2013-03-20 03:34:00,
2013-03-19 23:43:00,36.0,-99.9,29.63,WNW,287,11.0,26.0,-999,-99.99,,,-99.99,,2013-03-20 03:43:00,
2013-03-19 23:53:00,36.0,-99.9,29.64,WNW,288,12.0,20.0,-999,-99.99,,,-99.99,,2013-03-20 03:53:00,